フォーブズ彗星

37P/Forbes (2024)

English version
Home page
Updated on February 29, 2024

---------------------------------------------------------------------

・ プロフィール

・ 写真集

・ 軌道要素

Epoch 2024 Mar. 31.0 TT = JDT 2460400.5
T 2024 Oct. 11.26435 TT                                 Rudenko
q   1.6177354            (2000.0)            P               Q
n   0.15294545     Peri.  330.07085     +0.25682662     +0.96008191
a   3.4629403      Node   314.55466     -0.85297773     +0.17126001
e   0.5328434      Incl.    8.94754     -0.45438869     +0.22116222
P   6.44
>From 1017 observations 2018 Jan. 14-2024 Feb. 15, mean residual 1".1.
     Nongravitational parameters A1 = +0.71, A2 = -0.0281.

・ 星図

・ 光度変化

        m1 = 7.2 + 5 logΔ + 25 log r

---------------------------------------------------------------------

軌道要素はM.P.E.C. 2024-D33に掲載されたものです。
星図はステラナビゲータ Ver.10 (アストロアーツ) で作成したものです。
光度グラフはComet for Windowsで作成したものです。

---------------------------------------------------------------------

Copyright(C) Seiichi Yoshida (comet@aerith.net). All rights reserved.